Wind_Speed
35 34 36 36 34 41 43 40 40 42 43 44 45 45 45 46 45 45 40 44 45 42 44 44 42 37 37 37 46 46 48 39 39 45 36 43 42 35 31 33 24 23 28 29 27
39 38 34 36 38 38 37 35 36 38 42 44 44 45 46 47 45 43 48 47 48 48 47 48 47 44 43 40 43 48 50 40 44 50 42 48 44 45 40 33 27 24 27 27 28
38 35 37 36 36 35 35 39 39 39 41 41 43 45 46 46 45 48 48 50 52 53 51 52 52 50 49 45 43 47 52 46 51 53 51 50 47 46 44 35 28 26 28 28 28
40 39 42 42 41 40 38 37 38 38 39 41 42 44 44 44 46 48 49 50 53 56 56 57 56 57 56 50 48 46 50 49 57 61 57 51 50 48 44 31 33 33 32 29 25
43 44 44 43 41 40 38 38 37 38 38 40 40 41 43 46 49 50 52 54 57 59 62 63 65 62 61 57 52 53 48 48 59 60 61 57 52 51 43 37 36 37 31 28 27
39 38 42 41 41 39 37 36 36 37 37 39 41 42 43 48 53 55 56 61 65 66 67 70 71 70 67 63 59 55 50 49 59 60 65 61 55 54 44 42 36 36 32 30 27
41 41 41 41 39 38 37 35 36 37 36 39 40 41 45 52 57 60 64 69 72 75 76 76 75 74 72 67 64 59 56 54 58 60 65 67 58 57 44 44 38 36 33 31 26
43 43 42 39 37 35 34 35 34 34 36 38 40 42 47 53 58 61 63 54 60 64 63 78 84 79 76 73 69 63 60 58 60 54 65 71 64 55 50 47 42 38 34 34 27
42 41 39 38 35 31 32 32 31 33 35 39 40 44 49 49 48 47 45 47 51 48 46 61 72 83 76 74 68 68 67 58 60 55 65 68 66 53 53 47 45 38 36 35 32
42 39 37 35 31 30 29 29 30 32 36 40 42 47 39 42 42 44 49 55 56 55 54 61 63 70 76 77 69 64 67 60 57 56 59 62 65 55 55 50 47 42 38 38 34
39 37 33 32 30 27 26 27 29 31 36 40 43 40 31 38 39 38 46 44 48 52 57 58 61 61 68 77 73 74 65 59 53 59 59 61 64 61 56 54 51 48 44 42 37
36 32 30 28 24 24 25 26 29 30 30 42 35 30 33 36 32 33 37 36 35 35 37 51 60 50 52 77 63 62 53 48 60 59 58 53 63 62 59 58 55 50 45 42 41
32 29 25 22 21 22 24 26 29 31 32 31 26 27 36 30 29 33 36 34 31 26 26 41 44 48 53 86 75 69 70 53 50 51 58 55 54 67 64 63 58 56 49 46 45
28 24 21 19 20 22 25 26 28 31 27 22 21 27 26 25 21 28 29 29 23 24 28 33 40 52 54 86 74 62 67 67 55 54 55 56 61 60 71 66 62 60 54 50 47
21 20 18 18 20 23 25 26 28 30 24 19 18 22 20 17 23 18 24 27 24 22 28 23 37 45 58 75 69 43 46 50 53 56 52 57 63 58 59 73 68 65 57 51 49
19 18 17 20 20 23 26 26 28 25 19 15 16 16 14 16 20 15 19 16 8 15 4 17 30 34 63 69 45 58 47 36 35 47 55 48 57 58 55 64 69 66 61 54 51
18 17 18 19 21 23 24 27 28 24 15 12 14 10 14 13 4 10 8 9 2 10 15 8 15 20 59 71 55 54 46 45 34 38 53 45 55 55 51 52 54 60 66 59 53
17 18 19 22 23 25 24 26 27 19 14 10 13 10 6 7 3 8 10 17 23 17 14 14 22 19 68 58 47 29 51 64 48 46 43 43 58 56 49 47 49 47 48 62 58
18 21 23 24 25 24 24 25 24 19 13 12 11 12 5 6 6 7 12 7 15 13 9 8 17 41 58 55 37 47 37 40 50 48 43 38 46 50 44 47 49 48 41 56 66
19 21 22 22 23 23 22 23 24 20 15 12 11 11 9 6 8 6 8 19 20 4 10 20 26 44 43 41 41 44 48 43 47 26 34 41 39 41 38 40 46 51 40 44 59
18 19 21 22 23 21 20 20 22 21 14 14 11 9 10 11 8 8 8 10 11 10 18 13 17 35 36 33 39 45 48 42 48 48 43 43 43 42 36 43 46 46 45 47 49
14 16 20 19 19 18 18 19 20 20 13 15 13 9 9 10 9 8 10 11 11 9 10 6 16 16 35 33 33 42 48 53 51 46 46 46 46 41 37 38 50 47 43 47 46
13 17 20 19 16 16 17 19 19 19 14 13 16 12 7 8 10 6 7 8 10 13 13 13 8 11 14 38 39 34 35 40 34 41 44 44 46 46 43 37 45 50 48 46 51
14 16 18 19 17 15 17 19 19 19 16 10 17 15 11 6 8 8 7 8 9 10 18 15 10 12 14 14 21 21 36 36 36 31 37 37 30 26 26 27 40 47 46 44 52
14 16 17 18 18 17 16 20 20 20 17 13 15 18 16 12 7 8 10 9 9 6 10 19 20 17 14 11 10 9 16 28 33 23 26 30 29 27 24 20 22 39 47 49 42
12 15 17 16 18 18 17 17 20 21 20 15 11 18 19 17 14 11 8 8 8 5 4 9 20 22 20 19 14 8 3 13 22 20 22 24 21 20 21 25 24 22 27 45 57
11 13 16 17 18 19 20 18 19 21 21 20 14 12 22 20 18 16 11 7 8 7 3 7 9 16 23 23 25 25 23 11 14 20 21 25 24 22 19 21 30 31 34 35 37
Wind_Direction
274 273 276 278 283 285 284 282 278 274 273 270 266 264 264 263 265 266 265 258 260 255 253 256 256 255 260 256 237 234 225 224 221 206 205 221 217 220 225 234 206 202 215 212 213
284 285 288 290 288 289 288 286 278 275 273 270 265 265 266 266 266 264 262 262 259 258 254 253 255 254 252 255 241 237 226 215 214 209 203 222 220 222 230 229 214 202 217 215 214
287 287 285 288 290 292 292 290 287 283 278 274 269 266 267 266 263 259 258 258 257 256 256 255 253 252 251 250 252 234 229 216 211 208 206 217 219 226 227 226 222 206 218 213 211
284 286 289 288 287 293 293 287 283 281 279 275 271 269 268 267 264 259 257 257 258 257 255 254 253 251 250 249 251 244 232 218 210 208 206 214 218 220 225 219 225 215 216 213 210
287 288 288 287 289 291 290 286 283 281 278 275 272 271 272 271 267 263 261 258 253 252 253 252 252 248 245 247 244 248 230 221 211 212 208 215 217 221 219 220 222 226 216 215 205
290 289 289 291 293 291 289 288 284 281 277 274 273 274 274 272 270 267 262 259 256 252 247 246 247 248 244 241 242 243 239 218 211 220 212 216 213 220 216 219 220 226 219 218 208
292 291 289 292 294 294 292 287 285 281 279 277 277 276 279 280 278 271 268 265 259 253 249 248 243 244 243 239 238 238 232 225 217 223 214 215 208 217 216 221 215 224 225 222 213
292 293 293 295 295 294 291 287 284 282 281 281 281 282 283 285 282 279 275 269 269 266 260 247 242 238 238 236 235 235 232 228 213 216 214 214 205 214 214 215 217 220 223 225 214
294 294 296 296 295 293 290 287 286 287 288 287 289 286 290 287 281 276 276 275 280 279 272 261 245 238 229 230 228 231 231 232 220 210 217 218 207 210 217 215 221 217 220 227 218
296 299 300 298 295 291 289 290 291 294 293 294 295 295 293 288 284 283 279 274 278 265 258 250 245 235 224 221 214 220 229 230 222 215 217 218 211 208 216 214 217 221 217 223 222
296 297 300 297 293 292 293 293 296 299 300 299 298 292 297 297 296 283 279 285 279 262 251 241 236 235 225 221 221 226 223 227 223 216 219 225 218 204 218 216 215 219 216 218 220
300 304 298 294 293 295 296 299 301 301 305 305 295 285 300 304 289 289 295 290 272 266 250 242 233 229 217 204 198 209 211 222 217 220 215 217 212 205 214 219 214 221 220 219 218
300 298 295 296 299 300 304 307 305 307 309 300 286 298 307 302 291 300 306 287 271 257 261 249 237 226 216 199 194 202 209 210 216 217 218 217 219 208 211 218 214 217 218 217 218
302 299 299 301 304 309 311 308 311 312 307 300 296 310 308 308 311 306 301 287 273 259 256 239 224 216 216 196 191 202 215 219 219 219 217 220 220 210 211 216 216 215 217 218 220
296 300 304 304 314 312 312 313 314 307 304 299 298 314 318 332 325 302 295 291 295 271 268 253 218 221 209 187 185 192 197 211 217 221 223 226 230 210 214 214 216 214 217 218 221
306 311 314 314 314 314 318 317 314 301 297 308 297 325 326 327 335 304 294 274 279 286 141 184 184 203 190 174 187 195 198 203 207 220 224 223 233 222 218 221 218 219 217 217 221
318 320 315 315 313 316 318 315 314 302 292 307 300 334 345 350 357 344 265 157 264 180 168 149 161 167 187 176 184 190 209 215 218 223 217 218 228 212 217 221 222 226 226 220 221
317 319 320 314 316 316 319 317 319 300 273 294 311 308 333 349 6 303 271 298 310 302 293 159 198 174 184 180 177 171 213 215 219 219 223 227 229 219 219 222 219 221 227 226 221
326 329 326 322 318 317 320 319 319 300 265 280 307 306 305 327 335 276 238 320 335 325 265 161 198 182 176 183 184 190 201 215 223 228 226 214 228 231 226 226 227 230 227 222 216
328 329 325 320 316 318 321 324 323 313 260 261 283 304 271 290 330 286 292 270 282 3 41 150 173 169 174 185 195 201 215 210 205 209 225 220 231 240 232 230 222 228 231 230 223
337 334 328 323 319 318 322 325 327 320 272 249 273 298 279 266 280 298 266 290 246 245 285 138 160 189 189 200 209 214 218 224 228 234 234 236 241 243 239 224 224 222 227 222 221
331 324 326 328 320 318 327 332 332 326 300 242 254 279 299 266 260 282 278 270 261 215 236 161 188 187 202 204 218 222 223 232 232 228 233 233 240 243 237 228 228 228 224 224 226
339 335 338 331 322 325 337 337 334 334 323 253 239 256 285 284 246 272 277 280 255 237 224 228 195 163 164 214 218 206 207 217 223 229 230 234 245 246 251 243 233 229 229 229 224
346 351 349 345 333 333 341 340 338 341 335 283 237 241 252 272 268 260 272 286 296 243 224 213 188 180 219 196 201 209 221 224 224 222 225 234 233 236 244 244 234 227 225 229 228
347 354 352 357 351 342 341 344 339 342 342 323 251 234 241 246 264 263 266 273 292 296 227 224 236 236 199 204 155 188 200 211 214 208 212 219 232 234 237 245 233 230 228 225 219
329 349 347 6 4 354 341 344 343 341 341 339 290 237 237 237 239 248 273 258 253 287 251 209 221 221 224 248 250 219 152 209 211 213 215 215 211 212 210 217 224 237 230 235 233
327 335 340 346 352 1 353 343 342 342 341 338 325 264 234 234 235 239 243 251 233 246 244 211 215 225 231 239 249 265 272 249 237 233 233 228 231 231 225 222 222 228 230 225 225
Height
5759 5758 5758 5757 5756 5754 5752 5751 5750 5750 5749 5748 5747 5748 5749 5750 5752 5753 5758 5758 5757 5758 5759 5760 5762 5765 5766 5769 5772 5775 5778 5785 5793 5800 5806 5807 5812 5812 5814 5819 5822 5823 5824 5827 5831
5753 5752 5750 5749 5747 5745 5743 5742 5741 5740 5739 5738 5738 5738 5738 5740 5743 5744 5743 5746 5747 5747 5749 5751 5753 5757 5756 5761 5763 5767 5770 5780 5787 5794 5798 5798 5806 5808 5812 5816 5819 5819 5821 5826 5828
5747 5745 5743 5741 5738 5736 5734 5732 5730 5729 5727 5727 5727 5728 5728 5731 5732 5732 5733 5734 5735 5737 5740 5741 5744 5746 5747 5752 5754 5759 5764 5772 5778 5784 5788 5791 5798 5801 5805 5812 5819 5817 5817 5821 5824
5739 5736 5734 5731 5728 5726 5725 5723 5721 5719 5717 5716 5716 5716 5719 5719 5719 5720 5723 5726 5727 5727 5729 5730 5733 5735 5738 5742 5746 5749 5755 5762 5768 5773 5780 5785 5790 5795 5800 5811 5813 5812 5813 5817 5821
5729 5727 5724 5721 5719 5716 5714 5712 5710 5709 5707 5706 5706 5706 5707 5706 5705 5709 5710 5710 5713 5714 5714 5716 5718 5720 5723 5731 5735 5740 5746 5753 5759 5763 5771 5776 5783 5788 5796 5803 5806 5808 5812 5815 5816
5720 5717 5715 5712 5710 5707 5704 5702 5700 5699 5697 5696 5696 5696 5696 5693 5692 5694 5695 5693 5693 5696 5699 5701 5704 5705 5709 5717 5725 5731 5736 5741 5747 5753 5761 5765 5776 5778 5791 5795 5801 5804 5808 5810 5812
5712 5709 5706 5702 5700 5697 5695 5692 5690 5689 5687 5685 5684 5684 5683 5677 5674 5674 5673 5673 5674 5676 5680 5681 5687 5689 5696 5702 5711 5716 5723 5730 5736 5744 5749 5754 5766 5770 5784 5789 5795 5800 5803 5806 5809
5702 5699 5697 5694 5690 5687 5685 5683 5681 5679 5676 5675 5673 5671 5670 5663 5658 5652 5651 5649 5647 5650 5653 5656 5662 5670 5677 5687 5696 5700 5709 5716 5728 5734 5742 5747 5757 5767 5772 5780 5787 5795 5798 5802 5806
5693 5691 5688 5685 5681 5678 5676 5673 5672 5669 5667 5663 5662 5658 5656 5649 5643 5639 5636 5635 5633 5634 5634 5630 5635 5648 5658 5668 5679 5684 5695 5711 5717 5724 5734 5737 5751 5763 5764 5774 5779 5787 5793 5796 5802
5686 5682 5680 5676 5673 5669 5666 5665 5663 5661 5657 5652 5650 5645 5641 5636 5632 5629 5626 5620 5619 5613 5612 5613 5611 5622 5636 5646 5660 5676 5689 5703 5711 5719 5723 5726 5741 5757 5755 5765 5772 5779 5787 5790 5796
5677 5673 5671 5668 5665 5661 5659 5657 5656 5653 5647 5642 5640 5633 5629 5625 5622 5615 5610 5604 5597 5590 5590 5592 5592 5601 5624 5639 5659 5669 5679 5690 5702 5707 5713 5720 5730 5747 5748 5755 5763 5770 5777 5782 5790
5669 5665 5663 5660 5657 5654 5652 5649 5645 5643 5638 5631 5627 5624 5622 5616 5610 5603 5597 5587 5581 5578 5575 5574 5574 5601 5613 5625 5641 5656 5669 5681 5688 5696 5701 5710 5719 5736 5740 5746 5756 5764 5772 5778 5783
5662 5659 5656 5653 5650 5648 5645 5641 5637 5633 5630 5625 5620 5617 5613 5606 5598 5591 5584 5575 5570 5566 5565 5564 5577 5588 5594 5608 5626 5644 5659 5672 5683 5691 5694 5701 5709 5722 5731 5736 5746 5753 5763 5769 5775
5656 5653 5649 5647 5646 5641 5638 5634 5630 5626 5623 5619 5616 5612 5606 5598 5593 5582 5573 5566 5560 5559 5556 5553 5563 5569 5579 5596 5622 5638 5652 5665 5675 5680 5684 5692 5698 5711 5722 5727 5737 5747 5755 5762 5770
5649 5646 5643 5640 5638 5635 5633 5628 5623 5620 5617 5615 5611 5607 5599 5594 5586 5576 5569 5560 5556 5555 5551 5551 5557 5566 5571 5596 5619 5636 5650 5663 5670 5676 5679 5684 5688 5706 5711 5717 5729 5739 5748 5756 5763
5644 5641 5638 5636 5632 5629 5626 5623 5619 5616 5611 5609 5605 5602 5595 5589 5582 5571 5563 5563 5558 5556 5551 5551 5554 5561 5578 5602 5617 5635 5647 5657 5661 5665 5668 5678 5681 5691 5702 5711 5724 5731 5739 5748 5756
5640 5638 5634 5631 5628 5624 5621 5619 5616 5609 5608 5606 5601 5597 5592 5589 5581 5574 5568 5564 5562 5561 5557 5561 5564 5571 5583 5598 5613 5628 5641 5646 5653 5657 5663 5672 5676 5689 5698 5706 5720 5726 5733 5741 5750
5637 5634 5629 5626 5623 5621 5617 5615 5610 5605 5602 5601 5597 5595 5591 5589 5584 5578 5574 5570 5568 5565 5563 5565 5570 5570 5582 5593 5611 5621 5633 5642 5649 5656 5661 5670 5666 5679 5693 5701 5709 5714 5722 5729 5742
5633 5630 5627 5623 5620 5618 5615 5610 5604 5600 5599 5598 5595 5592 5590 5587 5584 5580 5578 5575 5573 5569 5568 5571 5574 5577 5588 5601 5613 5623 5632 5642 5651 5655 5657 5664 5665 5674 5686 5693 5699 5707 5712 5716 5726
5630 5627 5624 5620 5617 5613 5611 5606 5601 5596 5594 5594 5593 5590 5589 5587 5584 5581 5579 5578 5577 5578 5573 5577 5584 5589 5598 5607 5615 5624 5631 5636 5642 5647 5652 5658 5660 5665 5674 5681 5688 5696 5704 5710 5720
5627 5625 5621 5617 5614 5610 5607 5602 5597 5592 5590 5591 5590 5588 5587 5585 5585 5581 5579 5578 5578 5581 5580 5582 5588 5595 5601 5606 5615 5621 5625 5632 5640 5643 5647 5652 5655 5659 5667 5675 5680 5688 5694 5698 5708
5625 5622 5618 5613 5612 5608 5603 5598 5594 5589 5586 5586 5587 5586 5585 5584 5584 5583 5580 5579 5579 5582 5582 5585 5589 5594 5600 5606 5613 5616 5623 5630 5634 5638 5643 5647 5650 5653 5661 5668 5674 5680 5686 5692 5699
5621 5618 5615 5611 5608 5605 5600 5596 5592 5587 5583 5582 5583 5584 5583 5583 5583 5582 5580 5579 5580 5582 5583 5587 5592 5594 5599 5605 5608 5611 5617 5622 5629 5633 5637 5643 5645 5647 5653 5661 5664 5670 5677 5682 5689
5619 5615 5612 5609 5606 5602 5598 5595 5590 5585 5581 5579 5580 5581 5582 5581 5581 5581 5581 5580 5579 5581 5583 5586 5590 5592 5597 5602 5604 5607 5611 5616 5624 5629 5633 5638 5640 5643 5646 5650 5656 5662 5668 5674 5681
5616 5612 5610 5606 5603 5599 5595 5593 5589 5585 5581 5577 5576 5577 5578 5579 5579 5580 5580 5579 5578 5579 5581 5584 5588 5593 5594 5598 5601 5603 5606 5612 5618 5623 5627 5632 5635 5639 5640 5643 5647 5653 5660 5666 5672
5613 5610 5608 5604 5601 5598 5595 5591 5588 5584 5581 5576 5573 5573 5574 5576 5577 5578 5578 5579 5579 5580 5581 5582 5586 5590 5594 5596 5599 5601 5605 5609 5614 5618 5621 5625 5629 5631 5634 5638 5641 5645 5650 5656 5662
5608 5607 5605 5602 5599 5597 5593 5590 5587 5583 5580 5576 5572 5569 5570 5572 5574 5575 5577 5577 5578 5579 5580 5582 5583 5587 5591 5594 5597 5600 5603 5608 5611 5614 5617 5619 5622 5625 5628 5632 5637 5640 5645 5649 5654